SCP
0 0 0 0 0 0 0 0 0 0 0 0 0 0 0 0 0 0 0 0 0 0 0 0 0 0 0 0 0 0 0 0 1 1 1 1 2 2
0 0 0 0 0 0 0 0 0 0 0 0 0 0 0 0 0 0 0 0 0 0 0 0 0 0 0 0 0 0 0 0 1 1 1 1 1 2
0 0 0 0 0 0 0 0 0 0 0 0 0 0 0 0 0 0 0 0 0 0 0 0 0 0 0 0 0 0 0 0 0 0 1 1 1 1
0 0 0 0 0 0 0 0 0 0 0 0 0 0 0 0 0 0 0 0 0 0 0 0 0 0 0 0 0 0 0 0 0 0 0 0 1 1
0 0 0 0 0 0 0 0 0 0 0 0 0 0 0 0 0 0 0 0 0 0 0 0 0 0 0 0 0 0 0 0 0 0 0 0 0 1
0 0 0 0 0 0 0 0 0 0 0 0 0 0 0 0 0 0 0 0 0 0 0 0 0 0 0 0 0 0 0 0 0 0 0 0 0 0
0 0 0 0 0 0 0 0 0 0 0 0 0 0 0 0 0 0 0 0 0 0 0 0 0 0 0 0 0 0 0 0 0 0 0 0 0 0
0 0 0 0 0 0 0 0 0 0 0 0 0 0 0 0 0 0 0 0 0 0 0 0 0 0 0 0 0 0 0 0 0 0 0 0 0 0
0 0 0 0 0 0 0 0 0 0 0 0 0 0 0 0 0 0 0 0 0 0 0 0 0 0 0 0 0 0 0 0 0 0 0 0 0 0
0 0 0 0 0 0 0 0 0 0 0 0 0 0 0 0 0 0 0 0 0 0 0 0 0 0 0 0 0 0 0 0 0 0 0 0 0 0
0 0 0 0 0 0 0 0 0 0 0 0 0 0 0 0 0 0 0 0 0 0 0 0 0 0 0 0 0 0 0 0 0 0 0 0 0 0
0 0 0 0 0 0 0 0 0 0 0 0 0 0 0 0 0 0 0 0 0 0 0 0 0 0 0 0 0 0 0 0 0 0 0 0 0 0
0 0 0 0 0 0 0 0 0 0 0 0 0 0 0 0 0 0 0 0 0 0 0 0 0 0 0 0 0 0 0 0 0 0 0 0 0 0
0 0 0 0 0 0 0 0 0 0 0 0 0 0 0 0 0 0 0 0 0 0 0 0 0 0 0 0 0 0 0 0 0 0 0 0 0 0
0 0 0 0 0 0 0 0 0 0 0 0 0 0 0 0 0 0 0 0 0 0 0 0 0 0 0 0 0 0 0 0 0 0 0 0 0 0
0 0 0 0 0 0 0 0 0 0 0 0 0 0 0 0 0 0 0 0 0 0 0 0 0 0 0 0 0 0 0 0 0 0 0 0 0 0
0 0 0 0 0 0 0 0 0 0 0 0 0 0 0 0 0 0 0 0 0 0 0 0 0 0 0 0 0 0 0 0 0 0 0 0 0 0
0 0 0 0 0 0 0 0 0 0 0 0 0 0 0 0 0 0 0 0 0 0 0 0 0 0 0 0 0 0 0 0 0 0 0 0 0 0
0 0 0 0 0 0 0 0 0 0 0 0 0 0 0 0 0 0 0 0 0 0 0 0 0 0 0 0 0 0 0 0 0 0 0 0 0 0
0 0 0 0 0 0 0 0 0 0 0 0 0 0 0 0 0 0 0 0 0 0 0 0 0 0 0 0 0 0 0 0 0 0 0 0 0 0
0 0 0 0 0 0 0 0 0 0 0 0 0 0 0 0 0 0 0 0 0 0 0 0 0 0 0 0 0 0 0 0 0 0 0 0 0 0
0 0 0 0 0 0 0 0 0 0 0 0 0 0 0 0 0 0 0 0 0 0 0 0 0 0 0 0 0 0 0 0 0 0 0 0 0 0
0 0 0 0 0 0 0 0 0 0 0 0 0 0 0 0 0 0 0 0 0 0 0 0 0 0 0 0 0 0 0 0 0 0 0 0 0 0
Wind_Speed
10 9 9 9 9 9 10 11 14 15 15 15 13 13 10 10 9 11 13 11 12 14 16 17 19 19 20 20 19 19 18 17 15 14 16 21 25 26
9 11 11 10 9 10 11 11 12 13 15 13 14 15 14 12 13 14 14 14 16 18 20 19 19 19 20 20 20 19 18 15 13 12 12 15 20 24
12 13 13 13 11 11 11 12 13 12 14 14 13 15 17 16 13 13 13 13 12 15 17 17 17 18 19 19 18 18 16 14 12 11 11 12 15 18
14 14 15 12 14 13 12 14 13 12 14 16 14 14 16 15 14 14 13 12 12 12 12 14 16 17 17 16 15 13 11 9 9 9 9 10 12 14
14 14 15 15 15 13 14 13 11 12 12 13 13 12 12 12 13 14 14 11 12 11 10 13 16 15 13 11 10 9 8 8 8 8 9 9 9 11
14 14 15 15 15 15 12 13 12 12 12 12 12 12 11 13 12 11 10 9 9 9 10 9 8 10 11 10 10 11 10 10 10 10 10 10 10 10
15 15 15 16 18 15 12 13 13 11 11 11 12 12 12 11 10 9 9 9 10 8 7 6 6 6 8 11 14 14 13 12 13 14 14 13 13 12
14 14 14 15 16 17 19 20 18 16 14 12 12 13 15 14 11 9 8 8 7 3 4 5 4 6 6 6 5 6 10 13 15 16 17 17 17 16
13 13 12 12 15 14 15 17 18 21 22 17 16 17 16 14 12 11 9 9 7 2 2 4 4 6 5 4 5 10 14 17 20 21 21 21 21 20
13 14 14 15 14 14 14 14 16 16 17 14 12 14 14 13 12 11 9 6 3 2 3 3 3 4 4 4 7 12 16 20 23 26 27 26 24 22
14 15 16 15 14 14 15 15 16 15 12 11 13 13 13 13 10 5 4 4 3 3 3 3 2 3 4 4 6 12 17 19 21 25 28 29 26 23
12 14 16 15 15 16 15 13 14 12 9 7 5 5 5 5 4 1 1 2 1 1 1 2 2 2 3 3 5 8 10 13 14 16 24 26 27 18
11 11 10 13 16 17 15 10 11 9 6 3 2 3 4 4 6 6 5 3 2 2 2 2 2 2 2 3 4 7 9 8 5 4 16 25 25 17
11 10 11 16 17 14 8 5 5 3 0 2 2 3 4 5 6 7 8 8 7 7 6 4 2 3 3 3 4 7 9 10 9 10 12 18 18 15
10 15 17 16 12 7 9 9 6 4 3 4 5 5 5 5 5 5 6 8 10 10 10 10 7 6 6 5 5 6 6 10 11 12 13 12 11 12
10 12 13 10 7 7 7 7 6 5 4 5 5 5 5 5 6 5 5 6 7 9 12 13 12 10 8 10 9 10 10 8 10 13 15 16 14 14
11 7 6 6 6 6 5 5 5 5 6 6 6 6 6 6 6 6 6 7 8 8 8 8 10 11 14 12 10 11 11 11 11 12 16 17 16 14
10 7 7 6 6 6 6 6 6 6 6 6 6 6 6 6 7 7 7 8 8 8 8 6 5 6 9 14 17 11 11 11 11 13 15 17 16 14
8 8 7 7 6 6 6 6 7 7 6 7 7 7 7 7 6 7 7 8 9 9 10 9 9 9 13 12 13 16 11 11 12 14 14 15 15 12
9 9 8 7 6 6 6 6 6 7 7 7 7 7 7 6 7 7 8 10 10 11 12 12 12 12 13 11 9 12 16 12 12 14 14 15 16 20
9 9 8 7 6 6 6 6 6 6 7 6 6 7 6 6 7 8 9 11 11 12 13 12 11 12 11 11 12 13 14 18 16 11 12 14 14 13
9 9 8 8 7 6 6 6 6 6 6 6 6 6 6 6 7 9 9 10 10 10 12 11 12 11 12 13 14 14 14 15 18 21 19 12 8 9
9 9 8 8 8 6 6 6 7 6 6 6 6 6 6 7 7 8 9 9 9 10 11 11 11 11 11 12 12 13 17 16 13 15 17 25 31 28
Wind_Direction
284 284 285 294 293 293 293 290 291 292 288 290 287 286 285 280 280 275 274 269 262 262 266 270 272 272 271 271 271 271 270 273 271 263 249 232 224 220
286 288 289 288 293 294 290 288 284 282 283 283 285 285 287 285 279 278 276 273 259 255 257 261 265 268 267 266 265 263 260 260 263 261 254 238 224 219
291 290 291 292 291 291 290 285 280 277 278 280 279 280 279 277 279 277 276 275 269 250 247 252 258 264 265 263 261 257 254 250 248 251 251 242 227 217
297 297 297 298 294 291 287 284 285 285 280 281 279 278 277 279 279 279 278 275 276 271 255 252 257 260 261 258 255 247 241 237 236 241 244 239 228 218
302 301 300 298 293 290 289 287 286 281 276 278 281 281 279 276 277 276 277 277 279 279 263 249 251 255 257 252 244 234 227 228 228 231 239 240 232 220
301 298 295 293 291 291 289 284 280 278 277 278 280 281 280 278 276 278 280 282 284 285 279 268 250 243 247 246 240 236 233 232 232 231 231 232 231 225
302 299 297 298 293 287 283 283 283 281 280 280 280 281 280 280 279 282 284 288 286 274 262 252 241 239 233 234 236 238 239 236 234 231 229 227 225 223
306 304 301 293 291 288 281 279 280 281 281 280 280 280 281 283 284 282 279 279 279 256 249 252 236 243 242 246 242 244 248 249 244 237 230 224 220 219
304 299 295 293 292 288 288 286 281 275 272 274 276 278 283 285 284 279 270 269 266 224 219 255 233 243 249 250 266 271 266 259 251 242 233 225 218 213
302 297 293 291 290 290 290 286 281 277 274 273 274 278 280 281 274 269 269 266 253 202 211 257 249 254 264 266 265 272 274 266 255 242 231 222 213 207
305 303 301 297 293 285 288 287 285 284 280 273 276 280 284 286 275 252 235 231 227 192 199 256 276 279 272 267 287 294 290 278 262 240 224 211 201 193
306 302 297 294 297 292 291 287 284 289 303 312 313 320 321 338 356 326 253 233 238 191 171 269 281 294 286 280 306 318 311 293 282 232 203 190 178 180
305 304 304 304 300 298 292 281 275 283 300 314 347 2 11 27 36 39 35 23 14 35 7 311 325 318 303 310 320 333 338 338 352 118 150 153 157 166
307 309 313 315 313 315 315 319 308 299 30 61 45 34 37 41 45 47 50 53 51 46 27 24 20 358 352 4 343 335 355 13 39 74 101 116 119 115
314 318 319 322 328 346 21 28 38 56 67 62 54 47 42 48 51 53 59 64 59 51 45 45 47 41 44 41 19 4 10 26 43 66 78 86 94 98
328 325 325 336 4 25 32 42 48 45 50 60 58 52 48 49 48 47 55 60 62 57 50 48 47 49 58 54 52 47 42 44 51 65 71 70 68 70
330 334 351 3 25 36 40 42 47 51 54 54 56 56 54 54 55 55 61 63 63 62 59 55 55 60 55 49 54 51 52 54 56 67 75 73 64 66
345 1 7 16 27 32 37 44 50 53 54 57 57 57 59 59 59 60 64 66 66 64 61 56 55 69 70 53 37 52 56 59 61 68 77 82 76 68
4 8 12 19 25 30 36 43 53 57 57 58 59 60 61 59 60 62 65 69 69 66 61 57 55 64 72 67 39 34 56 65 69 70 71 78 81 77
6 7 11 16 19 27 37 44 54 58 57 58 61 62 61 60 60 60 63 73 75 74 70 63 60 62 69 76 71 51 46 64 76 82 83 84 85 86
1 3 8 12 17 25 37 46 53 55 58 60 62 63 63 63 66 71 74 74 77 78 78 77 83 89 90 87 80 73 63 57 63 78 93 96 96 93
358 360 5 11 15 22 32 43 52 55 58 57 56 57 60 64 70 74 77 79 79 82 85 89 91 87 84 85 87 89 88 85 72 63 57 69 92 102
355 355 1 7 12 16 29 44 50 49 51 51 48 50 57 62 67 72 77 80 84 90 92 94 93 91 90 91 93 93 90 85 79 73 68 72 83 93